Погода в Казанском

Россия / Республика Марий Эл     57°08′50″N   49°07′41″E
темп.,
°C
ветер,
м/с
пор.,
м/с
влажн.,
%
обл.,
%
осадки,
мм/ч
давл.,
гПа
погр.,
м
18 мая, вт
вт1800:00+16св33736 0.0 101824
03:00+14всв348462 0.0 101964
06:00+17в487627 0.0 1018234
09:00+21в345884 0.0 1019705
12:00+24всв334798 0.0 10191153
15:00+25всв444561 0.0 10191080
18:00+22всв47585 0.0 1019242
21:00+17в49695 0.0 1019147
19 мая, ср
ср1900:00+14в410775 0.0 1019188
03:00+13вюв4118337 0.0 1020211
06:00+16вюв510765 0.0 1020314
09:00+20вюв68595 0.0 1020839
12:00+23юв684434 0.0 10201328
15:00+24юв67416 0.0 10191439
18:00+22юв48565 0.0 1019253
21:00+16вюв410725 0.0 1019150
20 мая, чт
чт2000:00+14вюв411714 0.0 1019199
03:00+13вюв411755 0.0 1019185
06:00+16юв411713 0.0 1019284
09:00+22юв685019 0.0 1019899
12:00+24юв79396 0.0 10181687
15:00+24юв79415 0.0 10171775
18:00+21юв59544 0.0 1016311
21:00+16юв411665 0.0 1016181
21 мая, пт
пт2100:00+14юв48721 0.0 1015117
03:00+13юв48735 0.0 1015128
06:00+15юв411685 0.0 1014288
09:00+20юв6953100 0.0 1014697
12:00+23ююв684040 0.0 10122205
15:00+22ююв4753100 0.0 1011619
18:00+18ю5107299 0.4 1011336
21:00+15ю4109099 1.4 1011222
22 мая, сб
сб2200:00+14юз51194100 0.3 1012322
03:00+12юз5119512 0.3 1013354
06:00+12зюз51191100 0.0 1014726
09:00+16з7981100 0.1 1016944
12:00+17з6772100 0.0 10181052
15:00+19зюз5660100 0.3 10181329
18:00+18з3663100 0.1 1019194
21:00+13сз337197 0.1 102021